Tracking 26492 objects as of 8-Dec-2022
HD Live streaming from Space Station
objects crossing your sky now

SL-23 DEB

Track SL-23 DEB now!


NORAD ID: 43385
Int'l Code: 2009-009D
Perigee: 1,288.7 km
Apogee: 35,724.1 km
Inclination: 33.9 °
Period: 650.8 minutes
Semi major axis: 24877 km
RCS: Unknown
Launch date: February 26, 2009
Source: Commonwealth of Independent States (former USSR) (CIS)
Launch site: TYURATAM MISSILE AND SPACE COMPLEX (TTMTR)

Note: This is SATELLITE DEBRIS
aabbcc
Your satellite tracking list
Your tracking list is empty




NASA's NSSDC Master Catalog

Two Line Element Set (TLE):
1 43385U 09009D   22340.60889328  .00000038  00000-0  00000-0 0  9997
2 43385  33.8883 180.6209 6921014 155.4686 281.9281  2.21255895 76005
Source of the keplerian elements: AFSPC